Regional Weather Roundup
Issued by NWS

Home | Current Version | Previous Version | Graphics & Text | Print | Product List | Glossary Off
Versions: 1 2 3 4 5 6 7 8 9 10 11 12 13 14 15 16 17 18 19 20 21 22 23 24 25 26 27 28 29 30 31 32 33 34 35 36 37 38 39 40 41 42 43 44 45 46 47 48 49 50

000
ASUS43 KTOP 012059
RWRKS

WEATHER ROUNDUP FOR KANSAS
NATIONAL WEATHER SERVICE GOODLAND KS
400 PM CDT TUE SEP 01 2015

NOTE:  "FAIR" INDICATES FEW OR NO CLOUDS BELOW 12,000 FEET WITH NO
SIGNIFICANT WEATHER AND/OR OBSTRUCTIONS TO VISIBILITY.

KSZ001>006-013>018-027>032-041>047-012200-
NORTHWEST KANSAS

CITY           SKY/WX    TMP DP  RH WIND       PRES   REMARKS
GOODLAND       FAIR      91  52  26 SE8       29.97F
HAYS           FAIR      99  57  25 SW21G29   29.89F HX  97
HILL CITY      FAIR      97  58  27 MISG      29.89F HX  96
RUSSELL        FAIR      99  59  26 S22G31    29.88F HX  99
$$

KSZ061>065-074>080-084>089-012200-
SOUTHWEST KANSAS

CITY           SKY/WX    TMP DP  RH WIND       PRES   REMARKS
DODGE CITY     FAIR      95  53  24 S15G23    29.94F
ELKHART          N/A     91  58  32 S9          N/A
GARDEN CITY    FAIR      93  56  28 S14       29.95F
GREAT BEND     FAIR      99  61  28 S20G29    29.90F HX  99
LIBERAL        FAIR      95  57  28 S21G28    29.97F
$$

KSZ066>073-081>083-090>101-012200-
SOUTHEAST KANSAS

CITY           SKY/WX    TMP DP  RH WIND       PRES   REMARKS
CHANUTE        FAIR      88  68  51 S12       30.01F
COFFEYVILLE    FAIR      88  70  55 S13       30.00F
HUTCHINSON     FAIR      95  61  32 S23       29.93F HX  95
NEWTON         FAIR      93  63  36 S15G22    29.99F
PARSONS        FAIR      87  69  54 S7        30.02F
WICHITA INTL   FAIR      93  61  34 S15       29.94F
WICHITA JABRA  FAIR      90  64  42 S14G23    29.96F
WINFIELD       FAIR      92  65  40 SE14      29.98F
$$

KSZ007>012-019>026-033>040-048>060-102>105-012200-
NORTHEAST KANSAS

CITY           SKY/WX    TMP DP  RH WIND       PRES   REMARKS
CONCORDIA      FAIR      90  63  40 S20G28    29.90F
EMPORIA        FAIR      88  64  44 S20       29.98F
LAWRENCE       FAIR      90  66  45 S15       29.98F
MANHATTAN      FAIR      94  63  35 S15G22    29.93F HX  95
OLATHE IND     FAIR      87  69  54 S13G21    30.01F
OLATHE EXE     FAIR      86  69  56 S12       30.01F
SALINA         FAIR      95  63  34 S23G29    29.91F HX  96
TOPEKA BILLARD FAIR      91  65  41 S14G24    29.97F
TOPEKA FORBES  FAIR      91  65  41 S13       29.97F
$$


USA.gov is the U.S. government's official web portal to all federal, state and local government web resources and services.